JA6YCL-13 Weather Reports


time (UTC)temp
F
wind
direction
speed
knots
gust
knots
rain 1hr
in
rain 24hr
in
rain mn
in
humidity
%
barometer
mb
20260504080736 66 308 2.6 7.0 0.00 0.33 0.00 26 1013.7
20260504070338 68 269 3.5 9.6 0.00 0.35 0.00 23 1013.0
20260504025311 68 250 6.1 16.5 0.00 0.43 0.00 36 1011.7
20260504024026 68 244 6.1 18.2 0.00 0.43 0.00 38 1011.7
20260504022548 68 233 7.0 16.5 0.00 0.43 0.00 39 1011.9
20260504021151 66 245 7.0 20.0 0.00 0.43 0.00 42 1011.9
20260504015815 67 239 7.0 21.7 0.00 0.43 0.00 41 1011.9
20260504014443 67 239 7.0 15.6 0.00 0.43 0.00 42 1011.8
20260504013021 65 248 7.8 20.9 0.00 0.43 0.00 45 1011.9
20260504011704 65 234 7.0 21.7 0.00 0.43 0.00 45 1012.0
20260504010415 65 257 7.8 18.2 0.00 0.43 0.00 44 1011.6
20260504005204 65 245 7.8 20.9 0.00 0.43 0.00 46 1011.7
20260504003849 65 239 8.7 18.2 0.00 0.43 0.00 46 1011.7
20260504002401 65 244 10.4 19.1 0.00 0.43 0.00 49 1011.5
20260504001023 65 261 5.2 18.2 0.00 0.43 0.00 50 1011.3
20260503235745 65 238 7.0 15.6 0.00 0.43 0.00 50 1011.1
20260503234429 65 234 7.0 18.2 0.00 0.43 0.00 49 1010.9
20260503232931 64 255 6.1 14.8 0.00 0.43 0.00 52 1010.6
20260503231529 64 252 6.1 19.1 0.00 0.43 0.00 52 1010.5
20260503230250 64 270 5.2 13.0 0.00 0.43 0.00 55 1010.5
20260503224805 63 227 4.3 9.6 0.00 0.43 0.00 58 1010.3
20260503223436 62 242 3.5 8.7 0.00 0.43 0.00 60 1009.9
20260503222216 62 270 4.3 9.6 0.00 0.43 0.00 61 1009.8
20260503220716 61 243 2.6 7.0 0.00 0.43 0.00 64 1009.5
20260503215436 62 240 2.6 3.5 0.00 0.43 0.00 64 1009.3
20260503214006 61 251 2.6 6.1 0.00 0.43 0.00 67 1009.2
20260503212610 60 248 1.7 3.5 0.00 0.43 0.00 68 1009.0
20260503211236 59 248 1.7 3.5 0.00 0.43 0.00 69 1008.8
20260503205816 59 239 2.6 6.1 0.00 0.43 0.00 70 1008.5
20260503204619 59 254 3.5 7.0 0.00 0.43 0.00 71 1008.4
20260503203156 59 262 3.5 7.0 0.00 0.43 0.00 72 1008.0
20260503201831 59 243 4.3 11.3 0.00 0.43 0.00 71 1008.1
20260503200546 59 253 4.3 9.6 0.00 0.43 0.00 72 1008.1
20260503195206 60 251 3.5 8.7 0.00 0.43 0.00 72 1007.6
20260503193740 60 258 2.6 7.0 0.00 0.43 0.00 71 1007.3
20260503192536 60 251 2.6 11.3 0.00 0.43 0.00 71 1007.7
20260503191326 60 243 5.2 12.2 0.00 0.43 0.00 70 1007.4
20260503190002 60 247 2.6 7.0 0.00 0.43 0.00 70 1007.4
20260503184606 60 233 3.5 12.2 0.00 0.43 0.00 70 1007.5
20260503183106 60 246 3.5 13.0 0.00 0.43 0.00 70 1007.4
20260503181726 60 259 4.3 12.2 0.00 0.43 0.00 71 1007.3
20260503180332 60 260 5.2 9.6 0.00 0.43 0.00 71 1007.1
20260503175041 60 256 2.6 8.7 0.00 0.43 0.00 72 1007.1
20260503173751 60 254 4.3 7.8 0.00 0.43 0.00 73 1007.2
20260503172429 60 257 3.5 12.2 0.00 0.43 0.00 73 1007.0
20260503171140 60 255 4.3 12.2 0.00 0.43 0.00 74 1007.0